Location: Cerezo de Arriba
(41.2389°N, 3.5585°W)
Time: 03:51:40
(UTC+00:00)

CENTAUR R/B - Pass Details

Date: 19 May 2025
Orbit: 644 x 1537 km, 63.4° (Epoch: 23 June)

Event Time Altitude Azimuth Distance (km) Brightness Sun altitude
Rises 23:13:26 0° 327° (NNW) 4,119 6.9 -27.3°
Reaches altitude 10° 23:16:20 10° 336° (NNW) 3,275 6.2 -27.5°
Maximum altitude 23:23:51 38° 42° (NE) 2,056 4.4 -27.8°
Enters shadow 23:31:32 13° 105° (ESE) 3,472 5.1 -28.1°
